DW2770 Cefalu IT current weather conditions

sailwx.info

Wind from 258 at 7 knots gusting 12

Air temperature 23.3° C
Dewpoint 18.0° C

Last reported at 2014-Sep-03 03:50 UTC.
Time now 2014-Sep-03 05:01 UTC

Location: N 38°02' E 014°02'.
View on Google Maps.

See reports from other nearby stations

  
Tides and Currents Weather Stations Pressure Air Temp Water Temp Dewpoint Dewpoint Depression Visibility Wind Speed Wind Dir Waves Ship Positions
date/time (UTC)wind fromknots sea level pressurealtimeterstation pressurevisibilityair tempwater tempwave heightnotes
2014-Sep-03 03:50 258 7 gusting 12 23.3
2014-Sep-03 03:40 270 7 gusting 7 23.3
2014-Sep-03 03:30 315 7 gusting 12 23.3
2014-Sep-03 03:20 303 8 gusting 14 23.3
2014-Sep-03 03:10 202 7 gusting 8 23.3
2014-Sep-03 03:00 270 6 gusting 11 23.3
2014-Sep-03 02:50 262 6 gusting 11 23.3
2014-Sep-03 02:40 23.3
2014-Sep-03 02:30 225 6 gusting 11 23.3
2014-Sep-03 02:20 292 8 gusting 14 23.3
2014-Sep-03 02:10 270 7 gusting 14 23.3
2014-Sep-03 02:00 248 10 gusting 11 23.3
2014-Sep-03 01:50 315 6 gusting 11 23.3
2014-Sep-03 01:40 248 12 gusting 13 23.3
2014-Sep-03 01:30 315 5 gusting 13 21.7
2014-Sep-03 01:20 226 5 gusting 5 22.2
2014-Sep-03 01:10 315 5 gusting 7 23.3
2014-Sep-03 01:00 022 10 gusting 13 23.3
2014-Sep-03 00:50 298 11 gusting 13 23.3
2014-Sep-03 00:40 23.3
2014-Sep-03 00:30 248 7 gusting 13 23.3
2014-Sep-03 00:20 237 9 gusting 13 23.3
2014-Sep-03 00:10 248 6 gusting 10 23.3
2014-Sep-03 00:00 202 6 gusting 8 23.3
2014-Sep-02 23:50 299 8 gusting 8 23.3
2014-Sep-02 23:40 270 7 gusting 11 23.3
2014-Sep-02 23:30 225 6 gusting 17 23.3
2014-Sep-02 23:20 242 15 gusting 17 23.3
2014-Sep-02 23:10 270 5 gusting 10 23.3
2014-Sep-02 23:00 202 5 gusting 6 23.3
2014-Sep-02 22:50 196 6 gusting 8 23.3
2014-Sep-02 22:40 255 4 gusting 6 23.3
2014-Sep-02 22:30 225 8 gusting 13 23.3
2014-Sep-02 22:20 208 12 gusting 13 23.3
2014-Sep-02 22:10 268 13 gusting 13 23.3
2014-Sep-02 22:00 292 4 gusting 12 23.3
2014-Sep-02 21:50 211 3 gusting 8 22.8
2014-Sep-02 21:40 225 6 gusting 12 22.8
2014-Sep-02 21:30 202 12 gusting 12 22.8
2014-Sep-02 21:20 257 5 gusting 11 23.3
2014-Sep-02 21:10 248 5 gusting 8 22.8
2014-Sep-02 21:00 225 8 gusting 12 22.8
2014-Sep-02 20:50 225 8 gusting 8 22.8
2014-Sep-02 20:40 275 8 gusting 12 22.8
2014-Sep-02 20:30 270 5 gusting 7 22.8
2014-Sep-02 20:20 302 1 gusting 7 22.8
2014-Sep-02 20:10 264 7 gusting 11 22.8
2014-Sep-02 20:00 248 2 gusting 6 22.8
2014-Sep-02 19:50 315 6 gusting 13 23.3
2014-Sep-02 19:40 335 5 gusting 7 23.3
2014-Sep-02 19:30 248 5 gusting 14 23.3
2014-Sep-02 19:20 252 13 gusting 14 23.3
2014-Sep-02 19:10 207 4 gusting 13 23.3
2014-Sep-02 19:00 248 3 gusting 11 23.3
2014-Sep-02 18:50 254 6 gusting 12 23.3
2014-Sep-02 18:40 230 5 gusting 12 23.3
2014-Sep-02 18:30 292 6 gusting 8 22.8
2014-Sep-02 18:20 253 8 gusting 11 22.8
2014-Sep-02 18:10 248 8 gusting 8 23.3
2014-Sep-02 18:00 338 8 gusting 13 22.8
2014-Sep-02 17:50 329 7 gusting 13 22.8
2014-Sep-02 17:40 272 13 gusting 13 23.3
2014-Sep-02 17:30 315 5 gusting 8 23.3
2014-Sep-02 17:20 227 5 gusting 11 23.3
2014-Sep-02 17:10 216 6 gusting 11 23.3
2014-Sep-02 17:00 292 8 gusting 11 23.3
2014-Sep-02 16:50 267 6 gusting 14 23.3
2014-Sep-02 16:40 265 9 gusting 14 23.3
2014-Sep-02 16:30 225 6 gusting 8 23.3
2014-Sep-02 16:20 315 8 gusting 8 23.3
2014-Sep-02 16:10 308 6 gusting 17 23.3
2014-Sep-02 16:00 022 3 gusting 7 23.3
2014-Sep-02 15:50 271 7 gusting 13 23.3
2014-Sep-02 15:40 267 13 gusting 13 22.8
2014-Sep-02 15:30 248 4 gusting 14 22.2
2014-Sep-02 15:20 289 13 gusting 14 22.2
2014-Sep-02 15:10 287 10 gusting 12 22.8
2014-Sep-02 15:00 225 6 gusting 11 23.3
2014-Sep-02 14:50 287 2 gusting 11 23.9
2014-Sep-02 14:40 311 8 gusting 13 23.9
2014-Sep-02 14:30 292 4 gusting 12 23.9
2014-Sep-02 14:20 294 11 gusting 12 23.3
2014-Sep-02 14:10 278 7 gusting 13 23.3
2014-Sep-02 14:00 248 11 gusting 13 23.3
2014-Sep-02 13:50 313 8 gusting 8 22.8
2014-Sep-02 13:40 266 6 gusting 11 22.2
2014-Sep-02 13:30 270 10 gusting 13 22.8
2014-Sep-02 13:20 225 7 gusting 14 23.3
2014-Sep-02 13:10 315 14 gusting 14 23.9
2014-Sep-02 13:00 202 6 gusting 10 23.3
2014-Sep-02 12:50 335 5 gusting 12 22.8
2014-Sep-02 12:40 248 11 gusting 13 23.3
2014-Sep-02 12:30 248 7 gusting 17 23.9
2014-Sep-02 12:20 248 14 gusting 17 24.4
2014-Sep-02 12:10 307 7 gusting 18 23.9
2014-Sep-02 12:00 315 10 gusting 12 23.9
2014-Sep-02 11:50 248 8 gusting 12 23.9
2014-Sep-02 11:40 238 7 gusting 14 23.9
2014-Sep-02 11:30 180 5 gusting 14 23.9
2014-Sep-02 11:20 248 6 gusting 15 23.3
2014-Sep-02 11:10 295 11 gusting 13 23.3
2014-Sep-02 11:00 270 11 gusting 13 23.3
2014-Sep-02 10:50 315 7 gusting 12 22.8
2014-Sep-02 10:40 310 10 gusting 17 23.9
2014-Sep-02 10:30 292 10 gusting 17 23.9
2014-Sep-02 10:20 292 13 gusting 14 23.3
2014-Sep-02 10:10 278 12 gusting 14 23.9
2014-Sep-02 10:00 270 6 gusting 14 23.3
2014-Sep-02 09:50 315 12 gusting 17 23.3
2014-Sep-02 09:40 257 15 gusting 17 23.3
2014-Sep-02 09:30 248 12 gusting 13 23.9
2014-Sep-02 09:20 315 6 gusting 15 23.9
2014-Sep-02 09:10 257 12 gusting 15 23.9
2014-Sep-02 09:00 202 10 gusting 14 23.3
2014-Sep-02 08:50 180 14 gusting 15 23.3
2014-Sep-02 08:40 248 15 gusting 17 23.3
2014-Sep-02 08:30 292 12 gusting 17 23.3
2014-Sep-02 08:20 315 8 gusting 12 23.9
2014-Sep-02 08:10 236 6 gusting 11 23.3
2014-Sep-02 08:00 248 7 gusting 12 22.8
2014-Sep-02 07:50 202 8 gusting 14 21.7
2014-Sep-02 07:40 318 13 gusting 18 23.3
2014-Sep-02 07:30 315 11 gusting 18 23.3
2014-Sep-02 07:20 292 8 gusting 13 23.3
2014-Sep-02 07:10 300 12 gusting 19 22.8
2014-Sep-02 07:00 248 12 gusting 13 23.3
2014-Sep-02 06:50 202 7 gusting 15 23.3
2014-Sep-02 06:40 357 11 gusting 18 22.8
2014-Sep-02 06:30 248 16 gusting 19 22.2
2014-Sep-02 06:20 215 6 gusting 19 22.8
2014-Sep-02 06:10 237 11 gusting 13 22.8
2014-Sep-02 06:00 248 7 gusting 15 22.8
2014-Sep-02 05:50 292 9 gusting 15 22.2
2014-Sep-02 05:40 316 7 gusting 10 22.2
2014-Sep-02 05:30 225 7 gusting 13 21.7
2014-Sep-02 05:20 201 6 gusting 14 22.2
2014-Sep-02 05:10 235 10 gusting 14 22.2
2014-Sep-02 05:00 292 6 gusting 22 21.7
2014-Sep-02 04:50 234 17 gusting 22 21.1
2014-Sep-02 04:40 248 14 gusting 18 21.1
2014-Sep-02 04:30 225 17 gusting 24 22.2
2014-Sep-02 04:20 248 10 gusting 14 22.8
2014-Sep-02 04:10 338 13 gusting 13 22.8
2014-Sep-02 04:00 273 9 gusting 15 22.8
2014-Sep-02 03:50 225 13 gusting 24 22.8
2014-Sep-02 03:40 311 14 gusting 15 22.8
2014-Sep-02 03:30 292 13 gusting 17 22.8
2014-Sep-02 03:20 21.7
2014-Sep-02 03:10 204 13 gusting 18 21.7
2014-Sep-02 03:00 203 16 gusting 24 21.1
2014-Sep-02 02:50 247 14 gusting 24 20.6
2014-Sep-02 02:40 225 17 gusting 18 20.6
2014-Sep-02 02:30 225 14 gusting 17 22.2
2014-Sep-02 02:20 202 17 gusting 17 22.2
2014-Sep-02 02:10 270 16 gusting 17 22.2
2014-Sep-02 02:00 225 13 gusting 18 22.8
2014-Sep-02 01:50 202 17 gusting 18 22.8
2014-Sep-02 01:40 225 13 gusting 14 22.8
2014-Sep-02 01:30 225 13 gusting 17 22.8
2014-Sep-02 01:20 212 13 gusting 13 22.8
2014-Sep-02 01:10 248 14 gusting 15 22.8
2014-Sep-02 01:00 225 11 gusting 19 22.8
2014-Sep-02 00:50 203 11 gusting 19 22.8
2014-Sep-02 00:40 225 13 gusting 17 22.8
2014-Sep-02 00:30 225 12 gusting 15 22.8
2014-Sep-02 00:20 202 10 gusting 17 22.8
2014-Sep-02 00:10 202 11 gusting 17 22.8
2014-Sep-02 00:00 225 10 gusting 18 22.8
2014-Sep-01 23:50 248 12 gusting 18 22.8
2014-Sep-01 23:40 180 12 gusting 15 22.8
2014-Sep-01 23:30 230 13 gusting 19 22.8
2014-Sep-01 23:20 225 11 gusting 19 22.8
2014-Sep-01 23:10 243 15 gusting 18 22.8
2014-Sep-01 23:00 202 18 gusting 18 22.8
2014-Sep-01 22:50 248 15 gusting 19 22.8
2014-Sep-01 22:40 211 16 gusting 17 22.8
2014-Sep-01 22:30 180 17 gusting 17 22.8
2014-Sep-01 22:20 180 17 gusting 20 22.8
2014-Sep-01 22:10 202 15 gusting 17 22.8
2014-Sep-01 22:00 202 13 gusting 15 22.8
2014-Sep-01 21:50 208 14 gusting 17 22.8
2014-Sep-01 21:40 225 15 gusting 17 22.8
2014-Sep-01 21:30 202 15 gusting 15 22.8
2014-Sep-01 21:20 243 13 gusting 13 22.8
2014-Sep-01 21:10 225 7 gusting 13 22.8
2014-Sep-01 21:00 202 11 gusting 13 22.8
2014-Sep-01 20:50 225 8 gusting 11 23.3
2014-Sep-01 20:40 243 10 gusting 11 23.3
2014-Sep-01 20:30 202 10 gusting 14 23.3
2014-Sep-01 20:20 265 7 gusting 15 23.3
2014-Sep-01 20:10 226 5 gusting 11 23.3
2014-Sep-01 20:00 270 4 gusting 8 23.3
2014-Sep-01 19:50 326 4 gusting 8 23.3
2014-Sep-01 19:40 207 8 gusting 10 23.3
2014-Sep-01 19:30 068 4 gusting 10 23.3
2014-Sep-01 19:20 250 5 gusting 6 23.3
2014-Sep-01 19:11 225 6 gusting 13 23.3
2014-Sep-01 19:00 225 5 gusting 8 23.3
2014-Sep-01 18:51 248 8 gusting 13 23.3
2014-Sep-01 18:41 248 7 gusting 7 23.3
2014-Sep-01 18:31 225 3 gusting 13 23.3
2014-Sep-01 18:21 270 6 gusting 15 23.3
2014-Sep-01 18:11 250 4 gusting 15 23.3
2014-Sep-01 18:00 270 4 gusting 8 23.3
2014-Sep-01 17:51 168 2 gusting 8 22.8
2014-Sep-01 17:41 234 7 gusting 10 22.8
2014-Sep-01 17:31 248 4 gusting 7 21.7
2014-Sep-01 17:21 248 4 gusting 6 21.7
2014-Sep-01 17:11 202 5 gusting 8 21.1
2014-Sep-01 17:00 225 6 gusting 11 21.1
2014-Sep-01 16:51 286 11 gusting 14 21.7
2014-Sep-01 16:41 324 13 gusting 20 23.3
2014-Sep-01 16:31 248 13 gusting 22 24.4
2014-Sep-01 16:21 225 15 gusting 18 26.1
2014-Sep-01 16:11 248 13 gusting 17 26.7
2014-Sep-01 16:01 248 6 gusting 15 26.7
2014-Sep-01 15:51 338 8 gusting 13 26.1
2014-Sep-01 15:41 315 11 gusting 19 26.1
2014-Sep-01 15:31 330 15 gusting 15 26.7
2014-Sep-01 15:21 292 12 gusting 13 27.2
2014-Sep-01 15:11 270 11 gusting 18 27.2
2014-Sep-01 15:01 254 17 gusting 18 27.2
2014-Sep-01 14:51 225 11 gusting 14 27.2
2014-Sep-01 14:41 315 12 gusting 22 27.8
2014-Sep-01 14:31 258 13 gusting 22 27.2
2014-Sep-01 14:21 315 14 gusting 17 27.2
2014-Sep-01 14:11 270 16 gusting 22 28.3
2014-Sep-01 14:01 315 11 gusting 17 29.4
2014-Sep-01 13:51 177 11 gusting 17 29.4
2014-Sep-01 13:41 292 16 gusting 21 29.4
2014-Sep-01 13:31 29.4
2014-Sep-01 13:20 280 9 gusting 17 29.4
2014-Sep-01 13:10 248 8 gusting 21 28.9
2014-Sep-01 13:00 315 15 gusting 17 29.4
2014-Sep-01 12:50 289 10 gusting 21 29.4
2014-Sep-01 12:40 248 13 gusting 20 29.4
2014-Sep-01 12:30 270 15 gusting 19 29.4
2014-Sep-01 12:20 270 18 gusting 19 30.0
2014-Sep-01 12:11 270 6 gusting 15 30.0
2014-Sep-01 12:00 248 14 gusting 15 30.0
2014-Sep-01 11:50 270 7 gusting 18 30.0
2014-Sep-01 11:40 302 17 gusting 18 30.6
2014-Sep-01 11:31 270 8 gusting 13 30.0
2014-Sep-01 11:20 270 11 gusting 15 30.0
2014-Sep-01 11:10 258 7 gusting 12 29.4
2014-Sep-01 11:00 315 10 gusting 13 29.4
2014-Sep-01 10:50 270 12 gusting 17 29.4
2014-Sep-01 10:40 236 8 gusting 13 29.4
2014-Sep-01 10:31 270 7 gusting 10 28.9
2014-Sep-01 10:20 248 6 gusting 11 28.9
2014-Sep-01 10:10 294 9 gusting 13 28.9
2014-Sep-01 10:00 292 9 gusting 14 28.9
2014-Sep-01 09:50 270 14 gusting 14 28.3
2014-Sep-01 09:41 304 11 gusting 13 28.3
2014-Sep-01 09:30 315 13 gusting 13 28.3
2014-Sep-01 09:20 248 7 gusting 10 28.3
2014-Sep-01 09:10 282 6 gusting 12 30.0
2014-Sep-01 09:00 248 7 gusting 10 30.6
2014-Sep-01 08:51 292 7 gusting 10 30.0
2014-Sep-01 08:41 253 7 gusting 10 30.0
2014-Sep-01 08:30 270 11 gusting 12 29.4
2014-Sep-01 08:21 202 4 gusting 12 29.4
2014-Sep-01 08:10 265 4 gusting 11 29.4
2014-Sep-01 08:00 245 5 gusting 12 29.4
2014-Sep-01 07:50 202 7 gusting 10 28.9
2014-Sep-01 07:40 242 2 gusting 12 28.9
2014-Sep-01 07:30 266 8 gusting 10 28.9
2014-Sep-01 07:20 248 5 gusting 6 28.9
2014-Sep-01 07:10 237 4 gusting 13 28.3
2014-Sep-01 07:00 203 12 gusting 13 28.3
2014-Sep-01 06:50 225 5 gusting 8 28.3
2014-Sep-01 06:40 253 8 gusting 10 28.3
2014-Sep-01 06:30 245 4 gusting 13 28.3
2014-Sep-01 06:20 202 8 gusting 13 27.8
2014-Sep-01 06:10 221 10 gusting 14 27.8
2014-Sep-01 06:00 202 13 gusting 14 27.2
2014-Sep-01 05:50 248 8 gusting 14 27.2
2014-Sep-01 05:40 248 8 gusting 8 26.7
2014-Sep-01 05:30 260 3 gusting 6 25.6
2014-Sep-01 05:20 090 1 gusting 2 25.0
2014-Sep-01 05:10 115 24.4
2014-Sep-01 05:01 202 0 gusting 0 23.9